User: anonymous   Login
Location: Hertford
(51.8000°N, 0.0667°W)
Time: 06:17:35
(UTC+00:00)
Language:

CZ-2C R/B - Orbit

View from above orbital plane
View from above orbital plane
View from above satellite
View from above satellite

Ground track
Ground track

The orbit data is extracted from the following two-line orbital elements,

1 31114U 07010B   20338.84788492  .00000036  00000-0  34967-4 0  9996
2 31114  98.2404 180.1919 0060546 132.5767 228.0542 14.19339337707033
Epoch (UTC): 03 December 2020 20:20:57
Eccentricity: 0.0060546
inclination: 98.2404°
perigee height: 784 km
apogee height: 871 km
right ascension of ascending node: 180.1919°
argument of perigee: 132.5767°
revolutions per day: 14.19339337
mean anomaly at epoch: 228.0542°
orbit number at epoch: 70703

The dashed part of the orbit path shows where the satellite is in the earth's shadow,  

DLR